Regional Weather Roundup
Issued by NWS Wilmington, NC

Home | Current Version | Previous Version | Text Only | Print | Product List | Glossary On
Versions: 1 2 3 4 5 6 7 8 9 10 11 12 13 14 15 16 17 18 19 20 21 22 23 24 25 26 27 28
000
ASUS42 KILM 272113
RWRILM
RWRILM
REGIONAL HOURLY WEATHER ROUNDUP
NATIONAL WEATHER SERVICE WILMINGTON NC
500 PM EDT THU JUL 27 2017

NOTE: "FAIR" INDICATES FEW OR NO CLOUDS BELOW 12,000 FEET WITH NO
SIGNIFICANT WEATHER AND/OR OBSTRUCTIONS TO VISIBILITY.

...............WFO WILMINGTON COUNTY WARNING AREA...............

......COASTAL NC AND SC COUNTIES......

CITY           SKY/WX    TMP DP  RH WIND       PRES   REMARKS
WILMINGTON     CLOUDY    86  70  58 S9        29.97F HX  90
N MYRTLE BEACH CLOUDY    83  75  77 S9        29.97F HX  90
MYRTLE BEACH   MOSUNNY   84  75  74 SE9       29.98F HX  92

......INLAND NC AND SC COUNTIES.......

CITY           SKY/WX    TMP DP  RH WIND       PRES   REMARKS
LUMBERTON      CLOUDY    89  72  56 SW7       29.94F HX  96
ELIZABETHTOWN  NOT AVBL
WHITEVILLE     MOSUNNY   89  69  52 S8        29.95F HX  93
FLORENCE       CLOUDY    89  72  56 E3        29.95F HX  96
DARLINGTON     CLOUDY    88  74  63 SW6       29.96F HX  96
KINGSTREE      PTSUNNY   86  77  74 CALM      29.95F HX  97
HARTSVILLE     FAIR      88  72  58 S3        29.96S HX  94
BENNETTSVILLE  FAIR      91  73  55 CALM      29.95F HX 100
CONWAY         FAIR      88  73  62 SE6       29.96S HX  96
GEORGETOWN     FAIR      86  73  66 S8        29.97F HX  93
MARION         FAIR      88  70  55 SE3       29.95F HX  92

....................REST OF NORTH CAROLINA......................

.........EASTERN NC.........

CITY           SKY/WX    TMP DP  RH WIND       PRES   REMARKS
CAPE HATTERAS  MOSUNNY   84  70  62 SW10      29.98F
JACKSONVILLE   CLOUDY    87  69  54 SE10      29.96F HX  91
MOREHEAD CITY  MOSUNNY   84  73  69 S10       29.98F HX  90
KENANSVILLE    MOSUNNY   88  70  55 S3        29.95F HX  92
NEW BERN       CLOUDY    87  70  56 S10       29.97F HX  92
ELIZABETH CITY CLOUDY    87  74  64 SW10      29.93F HX  95

.........CENTRAL NC.........

CITY           SKY/WX    TMP DP  RH WIND       PRES   REMARKS
RALEIGH DURHAM CLOUDY    89  70  53 W8        29.95S HX  94
ROCKY MOUNT    MOSUNNY   88  70  55 SW8       29.94F HX  93
ROANOKE RAPIDS NOT AVBL
FAYETTEVILLE   PTSUNNY   91  70  49 SW9       29.94F HX  96
HOFFMAN        MOSUNNY   89  70  52 SW12      29.95F HX  95

.........WESTERN NC.........

CITY           SKY/WX    TMP DP  RH WIND       PRES   REMARKS
CHARLOTTE      CLOUDY    86  73  65 SW3       29.98F HX  93
GREENSBORO     CLOUDY    85  73  67 W10       29.97F HX  91
HICKORY        NOT AVBL
BOONE          NOT AVBL
ASHEVILLE      NOT AVBL

.....................REST OF SOUTH CAROLINA.....................

.........EASTERN SC.........

CITY           SKY/WX    TMP DP  RH WIND       PRES   REMARKS
CHARLESTON     PTSUNNY   86  72  62 S12       29.97S HX  92
BEAUFORT MCAS  CLOUDY    83  76  79 S6        29.97F HX  91
HILTON HEAD    CLOUDY    81  77  89 SE7G14    29.97F

.........CENTRAL SC.........

CITY           SKY/WX    TMP DP  RH WIND       PRES   REMARKS
COLUMBIA       PTSUNNY   92  68  45 VRB5      29.95F HX  96
ORANGEBURG     CLOUDY    89  70  53 VRB5      29.96F HX  94
SUMTER SHAW    CLOUDY    89  73  58 CALM      29.93F HX  96

.........WESTERN SC.........

CITY           SKY/WX    TMP DP  RH WIND       PRES   REMARKS
GREENVILLE     NOT AVBL
ROCK HILL      CLOUDY    87  69  54 SW6       29.98F HX  91
ANDERSON       CLOUDY    90  70  51 SW12      29.96F HX  95
CLEMSON        NOT AVBL
GREENWOOD      CLOUDY    88  69  53 S8        29.98F HX  92


...................COASTAL AND OFFSHORE REPORTS..................

................LOCAL PIERS AND NC RESERVE................


STATION/POSITION TIME  SKY/WX   TEMP    WIND        PRES    VSBY
                                AIR SEA DIR/SP/G
                 (UTC)          (F)     (DEG/KT/KT) (MB)    (MI)
JOHNY MRCER PIER 2048            82 84  160/  7/  8 1014.1F
NC RESRV MASNBRO 1945            86     200/  4     1017.0
OCEAN CREST PIER NOT AVBL
SPRINGMAID  PIER 2042                               1014.5F


................COASTAL AND OFFSHORE BUOYS................


STATION/POSITION TIME  SKY/WX   TEMP    WIND        PRES    VSBY
                                AIR SEA DIR/SP/G
                 (UTC)          (F)     (DEG/KT/KT) (MB)    (MI)
DIMNDSHOAL 41025 2050            82 86  190/ 10/ 12 1015.1F
WVE H/P(F/S)=  3/ 8 SWL H/P/D(F/S/D)=  3/ 50/ 8

CAPE LOOKOUT     2100            82     170/ 11/ 12 1014.7F
ONSLOW BAY 41036 NOT AVBL
ONSLOW BAY 41064 2008            82 85  180/  6/  8 1015.8F
ONSLOW BAY 41159 2043               85                N/A
WVE H/P(F/S)=  2/ 8

MASNBO INL 41110 2029               83                N/A
WVE H/P(F/S)=  2/ 9

WILM HARBR 41108 2100               83                N/A
WVE H/P(F/S)=  2/ 9

27SE WRITB 41037 2008            83 84  150/  8/ 10 1015.2F
FRYING PAN 41013 2050            82 83  170/  8/  8 1014.6F
WVE H/P(F/S)=  2/ 5 SWL H/P/D(F/S/D)=  2/100/ 5

SUNST NRSH 41024 2008            81 83  190/  4/  6 1015.2F
CAPRS NRSH 41029 2008            80 84  200/ 14/ 17 1015.1F
EDISTO     41004 2050            81 83  190/  8/ 10 1015.0F
WVE H/P(F/S)=  2/10 SWL H/P/D(F/S/D)=  2/110/10



..........OFFSHORE BUOYS BEYOND 100 NM OFFSHORE...........
.....IN A TRIANGLE---HAT TO BERMUDA TO BAHAMAS TO HAT.....


STATION/POSITION TIME  SKY/WX   TEMP    WIND        PRES    VSBY
                                AIR SEA DIR/SP/G
                 (UTC)          (F)     (DEG/KT/KT) (MB)    (MI)
150E HAT   41001 2100            80 82  320/  4/  6 1016.0
W BERMUDA  41048 2100            81 83  320/ 10/ 14 1015.4
ATLANTIC S 41049 2050            85 87   CALM  /  2 1017.6F
WVE H/P(F/S)=  5/ 8 SWL H/P/D(F/S/D)=  5/110/ 8

E BAHAMAS  41046 2100            83 85  110/  8/ 10 1015.5
NE BAHAMAS 41047 2050            85 88  110/  4/  8 1016.5F
WVE H/P(F/S)=  3/ 7 SWL H/P/D(F/S/D)=  3/130/ 7

120E CANVRL41010 2100            85 86  180/  6/  6 1015.5

END




USA.gov is the U.S. government's official web portal to all federal, state and local government web resources and services.